Location: Spruce Knob
(38.6995°N, 79.5330°W)
Time: 06:12:00
(UTC-05:00)

N. Korean satellite - Visible Passes

Search period start: 06 December 2021 00:00
Search period end: 16 December 2021 00:00
Orbit: 446 x 495 km, 97.3° (Epoch: 06 December)

Date Brightness Start Highest point End Pass type
(mag) Time Alt. Az. Time Alt. Az. Time Alt. Az.
06 Dec 7.7 05:12:07 10° NNE 05:15:20 41° E 05:18:32 10° S visible
07 Dec 9.3 04:44:25 10° NE 04:46:41 17° E 04:48:56 10° SE visible
07 Dec 7.6 06:17:10 10° NNW 06:19:49 22° WNW 06:22:28 10° WSW visible
08 Dec 6.4 05:48:06 10° N 05:51:24 54° WNW 05:54:42 10° SSW visible
08 Dec 10.1 17:56:16 10° WSW 17:57:14 11° W 17:58:13 10° WNW visible
09 Dec 7.1 05:19:34 10° NNE 05:22:52 54° E 05:26:11 10° S visible
09 Dec 9.1 17:25:34 10° SSW 17:28:31 25° W 17:31:27 10° NW visible
10 Dec 9.0 04:52:06 13° NE 04:54:14 21° E 04:56:52 10° SSE visible
10 Dec 7.9 06:26:14 16° NW 06:27:15 18° WNW 06:29:35 10° WSW visible
11 Dec 6.7 05:58:04 35° NW 05:58:51 41° WNW 06:02:04 10° SW visible
12 Dec 6.6 05:29:41 53° NE 05:30:19 71° E 05:33:42 10° S visible
12 Dec 9.5 17:33:23 10° SW 17:36:00 20° W 17:38:37 10° NW visible
13 Dec 8.6 05:01:13 25° E 05:01:42 26° E 05:04:37 10° SSE visible
13 Dec 8.2 06:35:19 14° W 06:35:19 14° W 06:36:32 10° WSW visible
14 Dec 9.8 04:32:40 11° E 04:32:56 11° E 04:34:05 10° ESE visible
14 Dec 7.2 06:06:46 31° W 06:06:46 31° W 06:09:18 10° SW visible
15 Dec 6.5 05:38:10 65° SSW 05:38:10 65° SSW 05:41:08 10° SSW visible
15 Dec 9.6 17:41:13 10° SW 17:43:25 16° W 17:45:36 10° NW visible
